Weather Roundup
Issued by NWS Chicago, IL

Home | Current Version | Previous Version | Graphics & Text | Print | Product List | Glossary Off
Versions: 1 2 3 4 5 6 7 8 9 10 11 12 13 14 15 16 17 18 19 20 21 22 23 24 25 26 27 28 29 30 31 32 33 34 35 36 37 38 39 40 41 42 43 44 45 46 47 48 49 50

477
NZUS59 KLOT 230908
HRRLOT

CHICAGO AREA WEATHER ROUNDUP
NATIONAL WEATHER SERVICE CHICAGO/ROMEOVILLE IL
300 AM CST THU NOV 23 2017

NOTE: "FAIR" INDICATES FEW OR NO CLOUDS BELOW 12,000 FEET WITH NO
SIGNIFICANT WEATHER AND/OR OBSTRUCTIONS TO VISIBILITY.

* THESE STATIONS ARE NOT UNDER NWS QUALITY CONTROL. THEY ALSO MAY NOT
  REPORT WEATHER SUCH AS PRECIPITATION OR FOG.

ILZ005-006-012>014-019>023-231000-
NORTHEAST ILLINOIS

CITY           SKY/WX    TMP DP  RH WIND       PRES   REMARKS
OHARE          CLOUDY    33  18  53 SW9       30.10F WCI  25
MIDWAY         CLOUDY    33  20  58 SW10      30.12F WCI  25
AURORA         CLOUDY    32  21  64 S9        30.11F WCI  24
LANSING*       CLOUDY    32  24  72 S8        30.14F WCI  24
JOLIET*        CLOUDY    33  22  64 SW6       30.14F WCI  27
WAUKEGAN       CLOUDY    32  19  58 SW13      30.08F WCI  22
DUPAGE AIRPORT CLOUDY    31  21  66 S10       30.10F WCI  22
WHEELING       CLOUDY    33  19  56 SW8       30.12F WCI  26
KANKAKEE*      CLOUDY    32  22  65 S7        30.16F WCI  26
MORRIS*        CLOUDY    32  23  69 S8        30.13F WCI  25
LEWIS AIRPORT* CLOUDY    32  21  64 SW8       30.12F WCI  24
NORTHERLY ISL    N/A     33  17  52 SE9         N/A  WCI  25
$$

WIZ051-052-058>065-066-070>072-231000-
SOUTHEAST WISCONSIN

CITY           SKY/WX    TMP DP  RH WIND       PRES   REMARKS
MILWAUKEE      CLOUDY    33  20  58 S12       30.04F WCI  24
KENOSHA*       CLOUDY    32  19  58 SW10      30.06F WCI  24
RACINE*        CLOUDY    32  20  61 SW10      30.07F WCI  24
BURLINGTON     CLOUDY    33  26  76 S10G17    30.04F WCI  25
WAUKESHA       CLOUDY    30  18  59 S7        30.02F WCI  23
WEST BEND      CLOUDY    30  18  59 S7        30.00F WCI  23
$$

INZ001>003-010>013-019-020-231000-
NORTHWEST INDIANA

CITY           SKY/WX    TMP DP  RH WIND       PRES   REMARKS
GARY*          CLOUDY    33  19  54 S5        30.15F WCI  29
MICHIGAN CITY* NOT AVBL
RENSSELAER*    NOT AVBL
VALPARAISO     CLOUDY    32  22  66 SW7       30.15F WCI  26
$$

LMZ740>746-231000-
SOUTHERN LAKE MICHIGAN

STATION/POSITION TIME  SKY/WX   TEMP WIND        PRES    VSBY
                                AIR  DIR/SP/G
                 (UTC)          (F)  (DEG/KT/KT) (MB)    (MI)
HARRISON CRIB    0840            34  210/ 14/ 17   N/A
BURNHAM HARBOR   0900            33  190/  8/ 10   N/A
CALUMET HARBOR   0848            33  190/  8/ 12 1019.7F
BURNS HARBOR     0840            32  190/  8/ 10 1021.3F
MICHIGAN CITY    0840            31  180/  9/ 10   N/A
$$

ABBREVIATIONS USED IN REMARKS
   TC - TEMPERATURE IN CELSIUS
  WCI - WIND CHILL INDEX
   HX - HEAT INDEX
  VSB - VISIBILITY
$$




USA.gov is the U.S. government's official web portal to all federal, state and local government web resources and services.